Weather History for LTBS - December, 2013

Change the Weather History Date:

Sunday, December 22, 2013

  Actual Average (WUND) Record (WUND)
Temperature  
Mean Temperature 52 °F -  
Max Temperature 66 °F 59 °F - (-1)
Min Temperature 39 °F 42 °F - (-1)
Degree Days  
Heating Degree Days 12    
Growing Degree Days 2 (Base 50)    
Moisture  
Dew Point 36 °F    
Average Humidity 61    
Maximum Humidity 93    
Minimum Humidity 20    
Precipitation  
Precipitation 0.00 in - - ()
Sea Level Pressure  
Sea Level Pressure 30.36 in    
Wind  
Wind Speed 6 mph ()    
Max Wind Speed 9 mph    
Max Gust Speed -    
Visibility 6.4 miles    
Events      
Averages and records for this station are not official NWS values.
T = Trace of Precipitation, MM = Missing Value Source: Averaged Metar Reports

Daily Weather History Graph

Daily Weather History Graph

Search for Another Location

Airport or City:

Trip Planner

Search our weather history database for the weather conditions in past years. The results will help you decide how hot, cold, wet, or windy it might be!

Date:

Astronomy

Dec. 22, 2013 Rise Set
Actual Time 7:14 AM EET 4:52 PM EET
Civil Twilight 6:45 AM EET 5:21 PM EET
Nautical Twilight 6:12 AM EET 5:54 PM EET
Astronomical Twilight 5:41 AM EET 6:25 PM EET
Moon 9:40 PM EET (12/22) 10:06 AM EET (12/22)
Length of Visible Light 10h 36m
Length of Day
9h 38m
Waning Gibbous, 79% of the Moon is Illuminated
Dec 22
Waning Gibbous
Dec 25
Last Quarter
Jan 1
New
Jan 8
First Quarter
Jan 16
Full

Hourly Weather History & Observations

Time (EET) Temp. Windchill Dew Point Humidity Pressure Visibility Wind Dir Wind Speed Gust Speed Precip Events Conditions
12:20 AM 44.6 °F 40.7 °F 37.4 °F 76% 30.36 in - NE 6.9 mph - N/A   Clear
12:50 AM 44.6 °F 41.4 °F 35.6 °F 71% 30.36 in - ENE 5.8 mph - N/A   Clear
1:20 AM 41.0 °F 36.4 °F 35.6 °F 81% 30.36 in - ENE 6.9 mph - N/A   Clear
1:50 AM 42.8 °F 38.6 °F 33.8 °F 70% 30.36 in - ENE 6.9 mph - N/A   Clear
2:00 AM 42 °F - 35 °F 68% 30.38 in 6 mi ENE 6.9 mph - -  
2:20 AM 48.2 °F - 28.4 °F 46% 30.36 in - ENE 5.8 mph - N/A   Clear
2:50 AM 41.0 °F 37.1 °F 33.8 °F 76% 30.36 in - East 5.8 mph - N/A   Clear
3:20 AM 41.0 °F 35.8 °F 35.6 °F 81% 30.36 in - NE 8.1 mph - N/A   Clear
3:50 AM 44.6 °F 39.7 °F 32.0 °F 61% 30.36 in - ENE 9.2 mph - N/A   Clear
4:20 AM 46.4 °F 42.9 °F 30.2 °F 53% 30.36 in - ENE 6.9 mph - N/A   Clear
4:50 AM 44.6 °F 40.2 °F 32.0 °F 61% 30.36 in - ENE 8.1 mph - N/A   Clear
5:00 AM 44 °F - 31 °F 48% 30.38 in 12 mi ENE 8.1 mph - -  
5:20 AM 44.6 °F 40.2 °F 32.0 °F 61% 30.36 in - ENE 8.1 mph - N/A   Clear
5:50 AM 46.4 °F 42.4 °F 26.6 °F 46% 30.36 in - ENE 8.1 mph - N/A   Clear
6:20 AM 44.6 °F 40.2 °F 30.2 °F 57% 30.36 in - East 8.1 mph - N/A   Clear
6:50 AM 42.8 °F 38.0 °F 32.0 °F 66% 30.36 in - ENE 8.1 mph - N/A   Clear
7:20 AM 41.0 °F 36.4 °F 32.0 °F 70% 30.36 in - ENE 6.9 mph - N/A   Clear
7:50 AM 42.8 °F 38.6 °F 30.2 °F 61% 30.36 in - East 6.9 mph - N/A   Clear
8:00 AM 42 °F - 32 °F 58% 30.39 in 6 mi East 6.9 mph - -  
8:20 AM 44.6 °F 40.7 °F 32.0 °F 61% 30.39 in - ENE 6.9 mph - N/A   Clear
8:50 AM 50.0 °F - 33.8 °F 54% 30.39 in - ENE 5.8 mph - N/A   Clear
9:20 AM 53.6 °F - 32.0 °F 44% 30.39 in - East 5.8 mph - N/A   Clear
9:50 AM 53.6 °F - 35.6 °F 51% 30.42 in - ENE 5.8 mph - N/A   Clear
10:20 AM 57.2 °F - 33.8 °F 41% 30.42 in - ENE 5.8 mph - N/A   Clear
10:50 AM 59.0 °F - 37.4 °F 45% 30.39 in - East 3.5 mph - N/A   Clear
11:00 AM 59 °F - 35 °F 29% 30.41 in 6 mi East 3.5 mph - -  
11:20 AM 60.8 °F - 30.2 °F 31% 30.39 in 6.2 mi North 5.8 mph - N/A   Partly Cloudy
11:50 AM 62.6 °F - 32.0 °F 32% 30.39 in 6.2 mi NNE 4.6 mph - N/A   Partly Cloudy
12:20 PM 64.4 °F - 32.0 °F 30% 30.36 in 6.2 mi North 3.5 mph - N/A   Partly Cloudy
12:50 PM 64.4 °F - 32.0 °F 30% 30.36 in 6.2 mi Variable 1.2 mph - N/A   Partly Cloudy
1:20 PM 66.2 °F - 28.4 °F 24% 30.33 in 6.2 mi Variable 1.2 mph - N/A   Partly Cloudy
1:50 PM 66.2 °F - 33.8 °F 30% 30.33 in 6.2 mi SSW 5.8 mph - N/A   Partly Cloudy
2:00 PM 65 °F - 34 °F 20% 30.35 in 6 mi SSW 5.8 mph - -   Scattered Clouds
2:20 PM 64.4 °F - 33.8 °F 32% 30.33 in 6.2 mi SW 6.9 mph - N/A   Partly Cloudy
2:50 PM 64.4 °F - 39.2 °F 40% 30.33 in 6.2 mi SW 6.9 mph - N/A   Partly Cloudy
3:20 PM 64.4 °F - 42.8 °F 45% 30.33 in 6.2 mi SW 6.9 mph - N/A   Partly Cloudy
3:50 PM 62.6 °F - 44.6 °F 52% 30.33 in 6.2 mi WSW 5.8 mph - N/A   Partly Cloudy
4:20 PM 60.8 °F - 46.4 °F 59% 30.33 in 6.2 mi SW 4.6 mph - N/A   Partly Cloudy
4:50 PM 57.2 °F - 46.4 °F 67% 30.36 in 6.2 mi SSE 3.5 mph - N/A   Partly Cloudy
5:00 PM 57 °F - 46 °F 56% 30.36 in 6 mi SSE 3.5 mph - -   Scattered Clouds
5:20 PM 53.6 °F - 46.4 °F 77% 30.36 in - ESE 4.6 mph - N/A   Clear
5:50 PM 50.0 °F - 42.8 °F 76% 30.33 in - ESE 4.6 mph - N/A   Clear
6:20 PM 48.2 °F - 42.8 °F 82% 30.36 in - NNE 5.8 mph - N/A   Clear
6:50 PM 48.2 °F - 42.8 °F 82% 30.36 in - East 5.8 mph - N/A   Clear
7:20 PM 48.2 °F - 41.0 °F 76% 30.36 in - ENE 4.6 mph - N/A   Clear
7:50 PM 44.6 °F 42.2 °F 41.0 °F 87% 30.36 in - ENE 4.6 mph - N/A   Clear
8:00 PM 44 °F - 41 °F 86% 30.38 in 6 mi ENE 4.6 mph - -  
8:20 PM 46.4 °F 43.5 °F 39.2 °F 76% 30.36 in - NE 5.8 mph - N/A   Clear
8:50 PM 44.6 °F 40.7 °F 39.2 °F 81% 30.36 in - NNE 6.9 mph - N/A   Clear
9:20 PM 44.6 °F 41.4 °F 37.4 °F 76% 30.36 in - NE 5.8 mph - N/A   Clear
9:50 PM 44.6 °F 40.7 °F 37.4 °F 76% 30.36 in - East 6.9 mph - N/A   Clear
10:20 PM 41.0 °F 37.1 °F 39.2 °F 93% 30.36 in - ENE 5.8 mph - N/A   Clear
10:50 PM 41.0 °F 37.1 °F 37.4 °F 87% 30.36 in - NE 5.8 mph - N/A   Clear
11:00 PM 41 °F - 37 °F 80% 30.37 in 6 mi NE 5.8 mph - -  
11:20 PM 41.0 °F 36.4 °F 37.4 °F 87% 30.36 in - NNE 6.9 mph - N/A   Clear
11:50 PM 39.2 °F 35.9 °F 35.6 °F 87% 30.36 in - NE 4.6 mph - N/A   Clear